This demonstration page uses our WeatherBlox Daily Observations layout. Learn more.

Left ArrowRight Arrow

40.92945, -100.16068

Hourly Observations for July 19, 2019

Temp ( °F °C ) Dew Point ( °F °C ) Humidity (%) Winds ( mph kmh ) Pressure ( in mb ) Visibility ( mi km ) Precip ( " mm )
12:15 am 00:15 Clear 76 24.5 73 23 91 91 SE 6 9 29.62 1003 10 16 N/A
12:35 am 00:35 Clear 76 24.5 73 22.5 89 89 SE 6 9 29.62 1003 10 16 N/A
12:55 am 00:55 Clear 76 24.4 71 21.7 85 85 SSE 6 9 29.62 1003 10 16 N/A
1:15 am 01:15 Clear 76 24.3 70 21.3 83 83 S 9 15 29.62 1003 10 16 N/A
1:35 am 01:35 Clear 76 24.5 70 21.2 82 82 S 9 15 29.62 1003 10 16 N/A
1:55 am 01:55 Clear 76 24.4 70 21 81 81 S 10 17 29.62 1003 10 16 N/A
2:15 am 02:15 Clear 79 25.9 69 20.8 74 74 S 13 20 29.60 1002 10 16 N/A
2:35 am 02:35 Clear 79 26 69 20.6 72 72 S 16 26 29.60 1002 10 16 N/A
2:55 am 02:55 Clear 80 26.4 69 20.4 70 70 SSW 15 24 29.60 1002 10 16 N/A
3:15 am 03:15 Clear 79 26 69 20.3 71 71 S 14 22 29.59 1002 10 16 N/A
3:35 am 03:35 Clear 78 25.6 69 20.3 73 73 S 13 20 29.60 1002 10 16 N/A
3:55 am 03:55 Clear 78 25.5 69 20.3 73 73 SSW 13 20 29.60 1002 10 16 N/A
4:15 am 04:15 Clear 77 25.2 69 20.3 74 74 SSW 12 19 29.60 1002 10 16 N/A
4:35 am 04:35 Clear 77 25 69 20.3 75 75 S 12 19 29.60 1002 10 16 N/A
4:55 am 04:55 Clear 77 24.8 69 20.3 76 76 S 12 19 29.60 1002 10 16 N/A
5:15 am 05:15 Clear 76 24.3 69 20.3 78 78 S 9 15 29.61 1003 10 16 N/A
5:35 am 05:35 Clear 75 24.1 69 20.3 79 79 S 8 13 29.61 1003 10 16 N/A
5:55 am 05:55 Clear 75 24 69 20.5 81 81 S 8 13 29.61 1003 10 16 N/A
6:15 am 06:15 Clear 75 23.7 69 20.3 81 81 S 8 13 29.61 1003 10 16 N/A
6:35 am 06:35 Sunny 74 23.3 68 20.2 83 83 S 6 9 29.63 1003 10 16 N/A
6:55 am 06:55 Sunny 74 23.2 69 20.3 84 84 SSE 3 6 29.64 1004 10 16 N/A
7:15 am 07:15 Sunny 74 23.5 69 20.6 84 84 S 5 7 29.63 1003 10 16 N/A
7:35 am 07:35 Sunny 76 24.3 70 20.9 81 81 S 5 7 29.63 1003 10 16 N/A
7:55 am 07:55 Sunny 77 25.1 70 20.9 78 78 SSW 7 11 29.62 1003 10 16 N/A
8:15 am 08:15 Sunny 78 25.7 70 21 75 75 SSW 6 9 29.63 1003 10 16 N/A
8:35 am 08:35 Sunny 79 26 69 20.8 73 73 SSW 8 13 29.62 1003 10 16 N/A
8:55 am 08:55 Sunny 80 26.4 70 21.1 73 73 SW 6 9 29.62 1003 10 16 N/A
9:15 am 09:15 Sunny 80 26.7 70 21.3 72 72 SSW 13 20 29.62 1003 10 16 N/A
9:35 am 09:35 Sunny 81 27.4 71 21.6 71 71 WSW 3 6 29.61 1003 10 16 N/A
9:55 am 09:55 Sunny 82 27.6 71 21.5 69 69 SSW 12 19 29.61 1003 10 16 N/A
10:15 am 10:15 Sunny 82 28 72 22 70 70 SSW 9 15 29.61 1003 10 16 N/A
10:35 am 10:35 Sunny 83 28.5 72 22.2 69 69 SW 9 15 29.60 1002 10 16 N/A
10:55 am 10:55 Sunny 84 28.9 73 22.6 69 69 SSW 8 13 29.60 1002 10 16 N/A
11:15 am 11:15 Sunny 85 29.2 73 22.8 68 68 SSW 8 13 29.61 1003 10 16 N/A
11:35 am 11:35 Sunny 85 29.7 73 23 67 67 SSW 8 13 29.60 1002 10 16 N/A
11:55 am 11:55 Sunny 86 29.9 74 23.2 67 67 SSW 6 9 29.60 1002 10 16 N/A
12:15 pm 12:15 Sunny 87 30.5 74 23.4 66 66 S 6 9 29.60 1002 10 16 N/A
12:35 pm 12:35 Sunny 88 30.9 75 24 67 67 S 8 13 29.59 1002 10 16 N/A
12:55 pm 12:55 Sunny 89 31.5 76 24.5 66 66 S 8 13 29.58 1002 10 16 N/A
1:15 pm 13:15 Sunny 90 32 77 24.8 66 66 N N/A 29.59 1002 10 16 N/A
1:35 pm 13:35 Sunny 90 32.1 76 24.4 64 64 S 8 13 29.58 1002 10 16 N/A
1:55 pm 13:55 Sunny 90 32.3 76 24.3 63 63 S 5 7 29.58 1002 10 16 N/A
2:15 pm 14:15 Sunny 91 32.6 76 24.4 62 62 SSE 7 11 29.57 1001 10 16 N/A
2:35 pm 14:35 Sunny 92 33.1 78 25.3 64 64 SSE 9 15 29.57 1001 10 16 N/A
2:55 pm 14:55 Sunny 92 33.2 77 24.8 61 61 SSE 10 17 29.57 1001 10 16 N/A
3:15 pm 15:15 Sunny 92 33.5 76 24.4 59 59 SSE 15 24 29.56 1001 10 16 N/A
3:35 pm 15:35 Sunny 92 33.6 77 24.8 60 60 SSE 10 17 29.55 1001 10 16 N/A
3:55 pm 15:55 Sunny 93 34 75 24.1 56 56 S 13 20 29.55 1001 10 16 N/A
4:15 pm 16:15 Sunny 93 34 76 24.5 58 58 S 9 15 29.55 1001 10 16 N/A
4:35 pm 16:35 Sunny 94 34.4 76 24.7 57 57 SSE 9 15 29.55 1001 10 16 N/A
4:55 pm 16:55 Sunny 94 34.7 78 25.3 58 58 SE 8 13 29.53 1000 10 16 N/A
5:15 pm 17:15 Sunny 95 34.8 78 25.4 58 58 SE 8 13 29.53 1000 10 16 N/A
5:35 pm 17:35 Sunny 95 35 75 24 53 53 SE 8 13 29.52 1000 10 16 N/A
5:55 pm 17:55 Sunny 94 34.6 78 25.3 58 58 ESE 9 15 29.52 1000 10 16 N/A
6:15 pm 18:15 Sunny 94 34.5 77 25 58 58 ESE 8 13 29.53 1000 10 16 N/A
6:35 pm 18:35 Sunny 94 34.4 76 24.7 57 57 SE 9 15 29.53 1000 10 16 N/A
6:55 pm 18:55 Sunny 94 34.2 78 25.4 60 60 ESE 7 11 29.53 1000 10 16 N/A
7:15 pm 19:15 Sunny 92 33.5 78 25.8 64 64 E 6 9 29.52 1000 10 16 N/A
7:35 pm 19:35 Sunny 91 33 77 25 63 63 E 9 15 29.53 1000 10 16 N/A
7:55 pm 19:55 Sunny 91 32.6 78 25.3 65 65 E 6 9 29.53 1000 10 16 N/A
8:15 pm 20:15 Sunny 88 31.3 79 26.2 74 74 ESE 7 11 29.54 1000 10 16 N/A
8:35 pm 20:35 Sunny 87 30.8 78 25.7 74 74 ESE 6 9 29.55 1001 10 16 N/A
8:55 pm 20:55 Sunny 87 30.8 77 24.8 70 70 SE 8 13 29.54 1000 10 16 N/A
9:15 pm 21:15 Clear 87 30.4 77 24.8 72 72 SE 8 13 29.56 1001 10 16 N/A
9:35 pm 21:35 Clear 85 29.6 76 24.2 73 73 SSE 9 15 29.56 1001 10 16 N/A
9:55 pm 21:55 Clear 84 28.9 73 23 71 71 SSE 10 17 29.58 1002 10 16 N/A
10:15 pm 22:15 Clear 83 28.6 72 22.2 68 68 SSE 12 19 29.58 1002 10 16 N/A
10:35 pm 22:35 Clear 83 28.4 71 21.7 67 67 SSE 10 17 29.59 1002 10 16 N/A
10:55 pm 22:55 Clear 83 28.1 71 21.4 67 67 SSE 10 17 29.60 1002 10 16 N/A
11:15 pm 23:15 Clear 83 28.6 69 20.6 62 62 S 12 19 29.60 1002 10 16 N/A
11:35 pm 23:35 Clear 84 28.8 68 20.2 60 60 S 14 22 29.59 1002 10 16 N/A
11:55 pm 23:55 Clear 83 28.6 68 20 60 60 S 15 24 29.59 1002 10 16 N/A

Powered by AerisWeather